| time (UTC) | temp F | wind direction | speed knots | gust knots | rain 1hr in | rain 24hr in | rain mn in | humidity % | barometer mb |
| 20260509000016 | 71 | 0 | 2.6 | 7.8 | 0.00 | 0.00 | 0.00 | 57 | 1029.9 |
| 20260508235517 | 71 | 12 | 2.6 | 7.8 | 0.00 | 0.00 | 0.00 | 57 | 1030.0 |
| 20260508235015 | 71 | 275 | 1.7 | 7.8 | 0.00 | 0.00 | 0.00 | 57 | 1029.9 |
| 20260508234515 | 71 | 290 | 1.7 | 7.8 | 0.00 | 0.00 | 0.00 | 56 | 1030.0 |
| 20260508234017 | 71 | 227 | 1.7 | 5.2 | 0.00 | 0.00 | 0.00 | 57 | 1030.0 |
| 20260508233511 | 71 | 232 | 1.7 | 5.2 | 0.00 | 0.00 | 0.00 | 57 | 1030.0 |
| 20260508233011 | 71 | 270 | 2.6 | 5.2 | 0.00 | 0.00 | 0.00 | 56 | 1030.0 |
| 20260508232512 | 71 | 215 | 2.6 | 7.8 | 0.00 | 0.00 | 0.00 | 56 | 1030.0 |
| 20260508232012 | 71 | 229 | 1.7 | 7.8 | 0.00 | 0.00 | 0.00 | 57 | 1030.1 |
| 20260508231511 | 71 | 238 | 1.7 | 5.2 | 0.00 | 0.00 | 0.00 | 57 | 1030.1 |
| 20260508231013 | 71 | 179 | 1.7 | 7.8 | 0.00 | 0.00 | 0.00 | 57 | 1030.2 |
| 20260508230507 | 70 | 119 | 1.7 | 7.8 | 0.00 | 0.00 | 0.00 | 58 | 1030.1 |
| 20260508230008 | 69 | 218 | 1.7 | 7.0 | 0.00 | 0.00 | 0.00 | 58 | 1030.2 |
| 20260508225508 | 69 | 275 | 2.6 | 7.0 | 0.00 | 0.00 | 0.00 | 58 | 1030.1 |
| 20260508225008 | 70 | 232 | 1.7 | 4.3 | 0.00 | 0.00 | 0.00 | 58 | 1030.1 |
| 20260508224508 | 69 | 232 | 1.7 | 4.3 | 0.00 | 0.00 | 0.00 | 56 | 1030.1 |
| 20260508224009 | 69 | 0 | 2.6 | 6.1 | 0.00 | 0.00 | 0.00 | 57 | 1030.1 |
| 20260508223508 | 69 | 258 | 2.6 | 7.0 | 0.00 | 0.00 | 0.00 | 57 | 1030.1 |
| 20260508223007 | 69 | 176 | 2.6 | 7.0 | 0.00 | 0.00 | 0.00 | 57 | 1030.1 |
| 20260508222508 | 69 | 339 | 2.6 | 7.8 | 0.00 | 0.00 | 0.00 | 56 | 1030.1 |
| 20260508222005 | 69 | 229 | 2.6 | 7.8 | 0.00 | 0.00 | 0.00 | 56 | 1030.1 |
| 20260508221505 | 68 | 0 | 2.6 | 6.1 | 0.00 | 0.00 | 0.00 | 57 | 1030.3 |
| 20260508221001 | 68 | 222 | 1.7 | 6.1 | 0.00 | 0.00 | 0.00 | 56 | 1030.2 |
| 20260508220502 | 68 | 234 | 2.6 | 6.1 | 0.00 | 0.00 | 0.00 | 57 | 1030.3 |
| 20260508220001 | 68 | 208 | 1.7 | 6.1 | 0.00 | 0.00 | 0.00 | 58 | 1030.2 |
| 20260508215502 | 67 | 271 | 2.6 | 6.1 | 0.00 | 0.00 | 0.00 | 58 | 1030.2 |
| 20260508214955 | 67 | 275 | 3.5 | 7.0 | 0.00 | 0.00 | 0.00 | 58 | 1030.2 |
| 20260508214455 | 67 | 169 | 3.5 | 8.7 | 0.00 | 0.00 | 0.00 | 59 | 1030.3 |
| 20260508213955 | 67 | 294 | 3.5 | 9.6 | 0.00 | 0.00 | 0.00 | 58 | 1030.2 |
| 20260508213455 | 67 | 303 | 3.5 | 9.6 | 0.00 | 0.00 | 0.00 | 60 | 1030.3 |
| 20260508212955 | 67 | 127 | 3.5 | 8.7 | 0.00 | 0.00 | 0.00 | 58 | 1030.4 |
| 20260508212456 | 67 | 274 | 3.5 | 8.7 | 0.00 | 0.00 | 0.00 | 58 | 1030.3 |
| 20260508211952 | 67 | 306 | 2.6 | 7.0 | 0.00 | 0.00 | 0.00 | 61 | 1030.3 |
| 20260508211451 | 67 | 122 | 2.6 | 6.1 | 0.00 | 0.00 | 0.00 | 60 | 1030.4 |
| 20260508210952 | 67 | 195 | 1.7 | 6.1 | 0.00 | 0.00 | 0.00 | 60 | 1030.4 |
| 20260508210451 | 67 | 282 | 2.6 | 7.0 | 0.00 | 0.00 | 0.00 | 60 | 1030.4 |
| 20260508205949 | 67 | 240 | 2.6 | 7.8 | 0.00 | 0.00 | 0.00 | 61 | 1030.3 |
| 20260508205450 | 67 | 273 | 2.6 | 7.8 | 0.00 | 0.00 | 0.00 | 61 | 1030.4 |
| 20260508204944 | 66 | 209 | 1.7 | 6.1 | 0.00 | 0.00 | 0.00 | 60 | 1030.3 |
| 20260508204443 | 66 | 129 | 1.7 | 7.0 | 0.00 | 0.00 | 0.00 | 60 | 1030.3 |
| 20260508203943 | 65 | 203 | 1.7 | 7.0 | 0.00 | 0.00 | 0.00 | 65 | 1030.3 |
| 20260508203443 | 65 | 128 | 1.7 | 4.3 | 0.00 | 0.00 | 0.00 | 63 | 1030.3 |
| 20260508202943 | 65 | 133 | 1.7 | 5.2 | 0.00 | 0.00 | 0.00 | 62 | 1030.4 |
| 20260508202444 | 65 | 246 | 2.6 | 6.1 | 0.00 | 0.00 | 0.00 | 61 | 1030.4 |
| 20260508201939 | 65 | 156 | 1.7 | 6.1 | 0.00 | 0.00 | 0.00 | 63 | 1030.4 |
| 20260508201440 | 64 | 210 | 1.7 | 4.3 | 0.00 | 0.00 | 0.00 | 65 | 1030.4 |
| 20260508200937 | 64 | 38 | 2.6 | 6.1 | 0.00 | 0.00 | 0.00 | 63 | 1030.4 |
| 20260508200437 | 64 | 271 | 2.6 | 5.2 | 0.00 | 0.00 | 0.00 | 63 | 1030.6 |
| 20260508195938 | 63 | 136 | 2.6 | 7.8 | 0.00 | 0.00 | 0.00 | 64 | 1030.6 |
| 20260508195436 | 63 | 355 | 1.7 | 7.0 | 0.00 | 0.00 | 0.00 | 65 | 1030.5 |
| 20260508194932 | 63 | 69 | 1.7 | 6.1 | 0.00 | 0.00 | 0.00 | 63 | 1030.6 |
| 20260508194431 | 64 | 235 | 2.6 | 6.1 | 0.00 | 0.00 | 0.00 | 63 | 1030.6 |
| 20260508193931 | 64 | 203 | 2.6 | 6.1 | 0.00 | 0.00 | 0.00 | 64 | 1030.7 |
| 20260508193431 | 65 | 212 | 1.7 | 6.1 | 0.00 | 0.00 | 0.00 | 64 | 1030.7 |
| 20260508192931 | 64 | 59 | 1.7 | 7.0 | 0.00 | 0.00 | 0.00 | 66 | 1030.7 |
| 20260508192432 | 63 | 92 | 1.7 | 7.0 | 0.00 | 0.00 | 0.00 | 65 | 1030.7 |
| 20260508191926 | 63 | 178 | 1.7 | 6.1 | 0.00 | 0.00 | 0.00 | 68 | 1030.8 |
| 20260508191425 | 62 | 160 | 2.6 | 7.0 | 0.00 | 0.00 | 0.00 | 66 | 1030.7 |
| 20260508190925 | 62 | 276 | 2.6 | 7.0 | 0.00 | 0.00 | 0.00 | 66 | 1030.8 |
| 20260508190425 | 62 | 292 | 2.6 | 5.2 | 0.00 | 0.00 | 0.00 | 67 | 1030.7 |
| 20260508185925 | 62 | 168 | 1.7 | 7.0 | 0.00 | 0.00 | 0.00 | 65 | 1030.8 |
| 20260508185431 | 62 | 172 | 2.6 | 7.0 | 0.00 | 0.00 | 0.00 | 66 | 1030.8 |
| 20260508184921 | 62 | 102 | 2.6 | 7.0 | 0.00 | 0.00 | 0.00 | 66 | 1030.9 |
| 20260508184421 | 62 | 257 | 2.6 | 7.0 | 0.00 | 0.00 | 0.00 | 68 | 1030.9 |
| 20260508183919 | 62 | 164 | 1.7 | 5.2 | 0.00 | 0.00 | 0.00 | 67 | 1030.8 |
| 20260508183419 | 62 | 154 | 1.7 | 4.3 | 0.00 | 0.00 | 0.00 | 67 | 1030.9 |
| 20260508182919 | 62 | 103 | 2.6 | 8.7 | 0.00 | 0.00 | 0.00 | 68 | 1030.8 |
| 20260508182420 | 62 | 229 | 3.5 | 8.7 | 0.00 | 0.00 | 0.00 | 70 | 1030.8 |
| 20260508181912 | 62 | 207 | 2.6 | 7.0 | 0.00 | 0.00 | 0.00 | 68 | 1030.8 |
| 20260508181412 | 62 | 136 | 2.6 | 7.0 | 0.00 | 0.00 | 0.00 | 68 | 1030.7 |
| 20260508180913 | 61 | 198 | 2.6 | 7.0 | 0.00 | 0.00 | 0.00 | 70 | 1030.7 |
| 20260508180412 | 60 | 191 | 2.6 | 6.1 | 0.00 | 0.00 | 0.00 | 70 | 1030.7 |
| 20260508175913 | 59 | 121 | 2.6 | 12.2 | 0.00 | 0.00 | 0.00 | 72 | 1030.8 |
| 20260508175414 | 59 | 199 | 3.5 | 12.2 | 0.00 | 0.00 | 0.00 | 73 | 1030.7 |
| 20260508174909 | 58 | 193 | 2.6 | 7.8 | 0.00 | 0.00 | 0.00 | 73 | 1030.6 |
| 20260508174409 | 58 | 179 | 1.7 | 6.1 | 0.00 | 0.00 | 0.00 | 73 | 1030.6 |
| 20260508173907 | 58 | 246 | 1.7 | 6.1 | 0.00 | 0.00 | 0.00 | 74 | 1030.6 |
| 20260508173407 | 58 | 171 | 2.6 | 6.1 | 0.00 | 0.00 | 0.00 | 74 | 1030.5 |
| 20260508172907 | 57 | 188 | 2.6 | 8.7 | 0.00 | 0.00 | 0.00 | 74 | 1030.5 |
| 20260508172408 | 57 | 155 | 2.6 | 8.7 | 0.00 | 0.00 | 0.00 | 73 | 1030.5 |
| 20260508171905 | 57 | 265 | 1.7 | 6.1 | 0.00 | 0.00 | 0.00 | 74 | 1030.5 |
| 20260508171405 | 57 | 194 | 1.7 | 5.2 | 0.00 | 0.00 | 0.00 | 76 | 1030.5 |
| 20260508170906 | 57 | 186 | 2.6 | 6.1 | 0.00 | 0.00 | 0.00 | 75 | 1030.4 |
| 20260508170402 | 57 | 194 | 2.6 | 6.1 | 0.00 | 0.00 | 0.00 | 75 | 1030.5 |
| 20260508165901 | 57 | 238 | 2.6 | 7.0 | 0.00 | 0.00 | 0.00 | 77 | 1030.5 |
| 20260508165401 | 56 | 178 | 2.6 | 7.0 | 0.00 | 0.00 | 0.00 | 77 | 1030.4 |
| 20260508164856 | 56 | 223 | 2.6 | 7.0 | 0.00 | 0.00 | 0.00 | 77 | 1030.3 |
| 20260508164355 | 56 | 171 | 1.7 | 7.0 | 0.00 | 0.00 | 0.00 | 79 | 1030.3 |
| 20260508163854 | 55 | 171 | 1.7 | 6.1 | 0.00 | 0.00 | 0.00 | 79 | 1030.2 |
| 20260508163354 | 55 | 259 | 1.7 | 6.1 | 0.00 | 0.00 | 0.00 | 79 | 1030.2 |
| 20260508162855 | 55 | 167 | 1.7 | 6.1 | 0.00 | 0.00 | 0.00 | 79 | 1030.2 |
| 20260508162355 | 55 | 173 | 1.7 | 4.3 | 0.00 | 0.00 | 0.00 | 80 | 1030.0 |
| 20260508161850 | 55 | 148 | 1.7 | 4.3 | 0.00 | 0.00 | 0.00 | 81 | 1029.9 |
| 20260508161346 | 54 | 143 | 2.6 | 6.1 | 0.00 | 0.00 | 0.00 | 81 | 1030.0 |
| 20260508160846 | 54 | 145 | 2.6 | 6.1 | 0.00 | 0.00 | 0.00 | 81 | 1029.8 |
| 20260508160348 | 54 | 147 | 2.6 | 7.8 | 0.00 | 0.00 | 0.00 | 82 | 1029.7 |
| 20260508155847 | 53 | 149 | 2.6 | 7.8 | 0.00 | 0.00 | 0.00 | 82 | 1029.5 |
| 20260508155347 | 53 | 175 | 2.6 | 6.1 | 0.00 | 0.00 | 0.00 | 83 | 1030.0 |
| 20260508154842 | 53 | 198 | 2.6 | 6.1 | 0.00 | 0.00 | 0.00 | 83 | 1030.1 |
| 20260508154342 | 53 | 224 | 2.6 | 10.4 | 0.00 | 0.00 | 0.00 | 83 | 1030.0 |
| 20260508153849 | 53 | 185 | 2.6 | 10.4 | 0.00 | 0.00 | 0.00 | 84 | 1030.1 |
| 20260508153342 | 53 | 115 | 2.6 | 6.1 | 0.00 | 0.00 | 0.00 | 84 | 1029.7 |
| 20260508152840 | 53 | 138 | 1.7 | 6.1 | 0.00 | 0.00 | 0.00 | 85 | 1029.9 |
| 20260508152341 | 52 | 201 | 2.6 | 8.7 | 0.00 | 0.00 | 0.00 | 86 | 1029.9 |
| 20260508151836 | 52 | 111 | 2.6 | 8.7 | 0.00 | 0.00 | 0.00 | 86 | 1029.8 |
| 20260508151337 | 51 | 139 | 1.7 | 6.1 | 0.00 | 0.00 | 0.00 | 85 | 1029.7 |
| 20260508150838 | 51 | 149 | 1.7 | 6.1 | 0.00 | 0.00 | 0.00 | 85 | 1029.5 |
| 20260508150337 | 51 | 134 | 1.7 | 5.2 | 0.00 | 0.00 | 0.00 | 85 | 1029.8 |
| 20260508145835 | 51 | 190 | 0.9 | 5.2 | 0.00 | 0.00 | 0.00 | 86 | 1029.9 |
| 20260508145336 | 51 | 157 | 0.9 | 4.3 | 0.00 | 0.00 | 0.00 | 86 | 1029.8 |
| 20260508144829 | 51 | 109 | 1.7 | 4.3 | 0.00 | 0.00 | 0.00 | 86 | 1029.9 |
| 20260508144328 | 51 | 126 | 1.7 | 7.0 | 0.00 | 0.00 | 0.00 | 86 | 1029.8 |
| 20260508143825 | 51 | 105 | 1.7 | 7.0 | 0.00 | 0.00 | 0.00 | 86 | 1029.7 |
| 20260508143331 | 51 | 190 | 0.9 | 5.2 | 0.00 | 0.00 | 0.00 | 86 | 1029.9 |
| 20260508142826 | 50 | 106 | 1.7 | 5.2 | 0.00 | 0.00 | 0.00 | 86 | 1029.8 |
| 20260508142325 | 50 | 134 | 1.7 | 4.3 | 0.00 | 0.00 | 0.00 | 86 | 1029.8 |
| 20260508141825 | 50 | 184 | 0.9 | 4.3 | 0.00 | 0.00 | 0.00 | 87 | 1029.9 |
| 20260508141325 | 50 | 147 | 0.9 | 3.5 | 0.00 | 0.00 | 0.00 | 87 | 1029.7 |
| 20260508140824 | 49 | 159 | 0.9 | 3.5 | 0.00 | 0.00 | 0.00 | 88 | 1029.8 |
| 20260508140325 | 49 | 195 | 0.9 | 2.6 | 0.00 | 0.00 | 0.00 | 88 | 1029.8 |
| 20260508135824 | 49 | 158 | 0.0 | 2.6 | 0.00 | 0.00 | 0.00 | 89 | 1029.9 |
| 20260508135323 | 48 | 169 | 0.0 | 2.6 | 0.00 | 0.00 | 0.00 | 89 | 1029.8 |
| 20260508134823 | 48 | 173 | 0.0 | 1.7 | 0.00 | 0.00 | 0.00 | 89 | 1029.7 |
| 20260508134323 | 48 | 172 | 0.0 | 1.7 | 0.00 | 0.00 | 0.00 | 89 | 1029.6 |
| 20260508133818 | 47 | 173 | 0.0 | 0.9 | 0.00 | 0.00 | 0.00 | 89 | 1029.5 |
| 20260508133319 | 47 | 173 | 0.0 | 1.7 | 0.00 | 0.00 | 0.00 | 89 | 1029.4 |
| 20260508132820 | 47 | 173 | 0.9 | 2.6 | 0.00 | 0.00 | 0.00 | 89 | 1029.3 |
| 20260508132318 | 47 | 173 | 0.9 | 2.6 | 0.00 | 0.00 | 0.00 | 89 | 1029.3 |
| 20260508131819 | 47 | 175 | 0.9 | 2.6 | 0.00 | 0.00 | 0.00 | 89 | 1029.2 |
| 20260508131320 | 47 | 175 | 0.0 | 2.6 | 0.00 | 0.00 | 0.00 | 89 | 1029.1 |
| 20260508130814 | 47 | 187 | 0.0 | 1.7 | 0.00 | 0.00 | 0.00 | 89 | 1029.2 |
| 20260508130315 | 47 | 188 | 0.0 | 1.7 | 0.00 | 0.00 | 0.00 | 89 | 1029.1 |
| 20260508125814 | 47 | 188 | 0.9 | 2.6 | 0.00 | 0.00 | 0.00 | 88 | 1028.9 |
| 20260508125315 | 48 | 188 | 0.9 | 2.6 | 0.00 | 0.00 | 0.00 | 88 | 1028.8 |
| 20260508124815 | 48 | 183 | 0.0 | 1.7 | 0.00 | 0.00 | 0.00 | 88 | 1028.7 |
| 20260508124316 | 48 | 174 | 0.0 | 1.7 | 0.00 | 0.00 | 0.00 | 88 | 1028.7 |
| 20260508123814 | 48 | 169 | 0.0 | 0.9 | 0.00 | 0.00 | 0.00 | 87 | 1028.4 |
| 20260508123315 | 48 | 169 | 0.0 | 0.9 | 0.00 | 0.00 | 0.00 | 87 | 1028.3 |
| 20260508122814 | 49 | 169 | 0.0 | 0.9 | 0.00 | 0.00 | 0.00 | 87 | 1028.3 |
| 20260508122312 | 49 | 169 | 0.0 | 0.9 | 0.00 | 0.00 | 0.00 | 87 | 1028.1 |
| 20260508121814 | 49 | 169 | 0.9 | 1.7 | 0.00 | 0.00 | 0.00 | 87 | 1028.1 |
| 20260508121310 | 49 | 169 | 0.9 | 4.3 | 0.00 | 0.00 | 0.00 | 87 | 1028.0 |
| 20260508120808 | 49 | 169 | 0.9 | 4.3 | 0.00 | 0.00 | 0.00 | 87 | 1027.9 |
| 20260508120309 | 49 | 209 | 0.0 | 1.7 | 0.00 | 0.00 | 0.00 | 86 | 1028.0 |
| 20260508115804 | 49 | 211 | 0.0 | 2.6 | 0.00 | 0.00 | 0.00 | 86 | 1028.1 |
| 20260508115306 | 49 | 211 | 0.9 | 2.6 | 0.00 | 0.00 | 0.00 | 86 | 1028.0 |
| 20260508114803 | 49 | 211 | 0.9 | 2.6 | 0.00 | 0.00 | 0.00 | 86 | 1028.0 |
| 20260508114303 | 50 | 211 | 0.9 | 3.5 | 0.00 | 0.00 | 0.00 | 85 | 1028.0 |
| 20260508113803 | 50 | 221 | 1.7 | 4.3 | 0.00 | 0.00 | 0.00 | 85 | 1028.0 |
| 20260508113303 | 50 | 213 | 1.7 | 4.3 | 0.00 | 0.00 | 0.00 | 85 | 1027.9 |
| 20260508112802 | 50 | 226 | 1.7 | 7.0 | 0.00 | 0.00 | 0.00 | 85 | 1027.9 |
| 20260508112258 | 50 | 197 | 1.7 | 7.0 | 0.00 | 0.00 | 0.00 | 85 | 1027.7 |
| 20260508111759 | 50 | 254 | 1.7 | 5.2 | 0.00 | 0.00 | 0.00 | 85 | 1027.6 |
| 20260508111258 | 50 | 250 | 2.6 | 6.1 | 0.00 | 0.00 | 0.00 | 84 | 1027.6 |
| 20260508110756 | 50 | 276 | 1.7 | 6.1 | 0.00 | 0.00 | 0.00 | 85 | 1027.4 |
| 20260508110257 | 50 | 229 | 1.7 | 5.2 | 0.00 | 0.00 | 0.00 | 84 | 1027.4 |
| 20260508105754 | 50 | 229 | 1.7 | 4.3 | 0.00 | 0.00 | 0.00 | 84 | 1027.2 |
| 20260508105254 | 50 | 210 | 1.7 | 4.3 | 0.00 | 0.00 | 0.00 | 85 | 1027.2 |
| 20260508104755 | 50 | 201 | 0.9 | 2.6 | 0.00 | 0.00 | 0.00 | 85 | 1027.2 |
| 20260508104252 | 50 | 186 | 0.0 | 2.6 | 0.00 | 0.00 | 0.00 | 85 | 1027.1 |
| 20260508103750 | 50 | 251 | 0.0 | 1.7 | 0.00 | 0.00 | 0.00 | 85 | 1027.2 |
| 20260508103251 | 50 | 254 | 0.0 | 2.6 | 0.00 | 0.00 | 0.00 | 85 | 1027.2 |
| 20260508102744 | 50 | 253 | 0.9 | 3.5 | 0.00 | 0.00 | 0.00 | 85 | 1027.1 |
| 20260508102242 | 50 | 205 | 0.9 | 3.5 | 0.00 | 0.00 | 0.00 | 84 | 1027.2 |
| 20260508101740 | 50 | 227 | 1.7 | 4.3 | 0.00 | 0.00 | 0.00 | 84 | 1027.1 |
| 20260508101238 | 50 | 247 | 1.7 | 4.3 | 0.00 | 0.00 | 0.00 | 84 | 1027.2 |
| 20260508100739 | 50 | 245 | 0.9 | 3.5 | 0.00 | 0.00 | 0.00 | 85 | 1027.0 |
| 20260508100232 | 50 | 238 | 0.9 | 3.5 | 0.00 | 0.00 | 0.00 | 85 | 1026.9 |
| 20260508095733 | 50 | 269 | 1.7 | 6.1 | 0.00 | 0.00 | 0.00 | 85 | 1026.8 |
| 20260508095232 | 50 | 264 | 1.7 | 6.1 | 0.00 | 0.00 | 0.00 | 85 | 1026.7 |
| 20260508094732 | 50 | 229 | 0.9 | 5.2 | 0.00 | 0.00 | 0.00 | 86 | 1026.7 |
| 20260508094232 | 50 | 208 | 0.9 | 2.6 | 0.00 | 0.00 | 0.00 | 86 | 1026.6 |
| 20260508093731 | 49 | 236 | 0.9 | 1.7 | 0.00 | 0.00 | 0.00 | 87 | 1026.4 |
| 20260508093226 | 49 | 236 | 0.0 | 1.7 | 0.00 | 0.00 | 0.00 | 87 | 1026.3 |
| 20260508092726 | 49 | 251 | 0.0 | 1.7 | 0.00 | 0.00 | 0.00 | 87 | 1026.3 |
| 20260508092223 | 49 | 227 | 0.0 | 0.0 | 0.00 | 0.00 | 0.00 | 87 | 1026.2 |
| 20260508091720 | 49 | 227 | 0.0 | 0.0 | 0.00 | 0.00 | 0.00 | 87 | 1026.2 |
| 20260508091220 | 49 | 227 | 0.0 | 1.7 | 0.00 | 0.00 | 0.00 | 87 | 1026.3 |
| 20260508090719 | 49 | 227 | 0.0 | 1.7 | 0.00 | 0.00 | 0.00 | 87 | 1026.3 |
| 20260508090216 | 49 | 227 | 0.0 | 0.9 | 0.00 | 0.00 | 0.00 | 87 | 1026.4 |
| 20260508085717 | 49 | 234 | 0.0 | 0.0 | 0.00 | 0.00 | 0.00 | 87 | 1026.3 |
| 20260508085216 | 49 | 234 | 0.0 | 0.9 | 0.00 | 0.00 | 0.00 | 87 | 1026.3 |
| 20260508084714 | 49 | 235 | 0.0 | 0.9 | 0.00 | 0.00 | 0.00 | 87 | 1026.2 |
| 20260508084215 | 49 | 235 | 0.0 | 0.0 | 0.00 | 0.00 | 0.00 | 87 | 1026.4 |
| 20260508083712 | 49 | 234 | 0.0 | 0.9 | 0.00 | 0.00 | 0.00 | 87 | 1026.4 |
| 20260508083210 | 49 | 235 | 0.0 | 0.9 | 0.00 | 0.00 | 0.00 | 87 | 1026.2 |
| 20260508082707 | 49 | 234 | 0.0 | 0.0 | 0.00 | 0.00 | 0.00 | 86 | 1026.2 |
| 20260508082209 | 49 | 235 | 0.0 | 0.0 | 0.00 | 0.00 | 0.00 | 86 | 1026.1 |
| 20260508081708 | 49 | 235 | 0.0 | 0.0 | 0.00 | 0.00 | 0.00 | 85 | 1026.0 |
| 20260508081209 | 50 | 234 | 0.0 | 0.0 | 0.00 | 0.00 | 0.00 | 86 | 1026.0 |
| 20260508080705 | 50 | 234 | 0.0 | 0.0 | 0.00 | 0.00 | 0.00 | 85 | 1026.0 |
| 20260508080204 | 50 | 234 | 0.0 | 0.0 | 0.00 | 0.00 | 0.00 | 85 | 1026.0 |
| 20260508075702 | 50 | 234 | 0.0 | 0.0 | 0.00 | 0.00 | 0.00 | 85 | 1026.0 |
| 20260508075202 | 50 | 236 | 0.0 | 0.0 | 0.00 | 0.00 | 0.00 | 85 | 1025.9 |
| 20260508074701 | 51 | 235 | 0.0 | 0.0 | 0.00 | 0.00 | 0.00 | 85 | 1026.0 |
| 20260508074203 | 51 | 235 | 0.0 | 0.0 | 0.00 | 0.00 | 0.00 | 85 | 1025.9 |
| 20260508073659 | 51 | 235 | 0.0 | 0.9 | 0.00 | 0.00 | 0.00 | 85 | 1025.9 |
| 20260508073157 | 51 | 235 | 0.0 | 0.9 | 0.00 | 0.00 | 0.00 | 84 | 1025.8 |
| 20260508072659 | 51 | 234 | 0.0 | 0.9 | 0.00 | 0.00 | 0.00 | 84 | 1025.7 |
| 20260508072158 | 51 | 235 | 0.0 | 0.0 | 0.00 | 0.00 | 0.00 | 83 | 1025.7 |
| 20260508071656 | 52 | 235 | 0.0 | 0.0 | 0.00 | 0.00 | 0.00 | 83 | 1025.7 |
| 20260508071157 | 52 | 234 | 0.0 | 0.0 | 0.00 | 0.00 | 0.00 | 83 | 1025.6 |
| 20260508070651 | 52 | 234 | 0.0 | 0.0 | 0.00 | 0.00 | 0.00 | 83 | 1025.6 |
| 20260508070149 | 52 | 235 | 0.0 | 0.0 | 0.00 | 0.00 | 0.00 | 82 | 1025.6 |
| 20260508065650 | 52 | 235 | 0.0 | 0.0 | 0.00 | 0.00 | 0.00 | 81 | 1025.7 |
| 20260508065151 | 53 | 234 | 0.0 | 0.0 | 0.00 | 0.00 | 0.00 | 81 | 1025.7 |
| 20260508064650 | 53 | 234 | 0.0 | 0.0 | 0.00 | 0.00 | 0.00 | 80 | 1025.6 |
| 20260508064149 | 53 | 235 | 0.0 | 0.0 | 0.00 | 0.00 | 0.00 | 80 | 1025.5 |
| 20260508063646 | 53 | 236 | 0.0 | 0.0 | 0.00 | 0.00 | 0.00 | 80 | 1025.5 |
| 20260508063146 | 54 | 235 | 0.0 | 0.0 | 0.00 | 0.00 | 0.00 | 80 | 1025.6 |
| 20260508062646 | 54 | 234 | 0.0 | 0.0 | 0.00 | 0.00 | 0.00 | 79 | 1025.5 |
| 20260508062147 | 54 | 236 | 0.0 | 0.0 | 0.00 | 0.00 | 0.00 | 78 | 1025.5 |
| 20260508061644 | 54 | 234 | 0.0 | 0.0 | 0.00 | 0.00 | 0.00 | 78 | 1025.4 |
| 20260508061144 | 55 | 235 | 0.0 | 0.0 | 0.00 | 0.00 | 0.00 | 78 | 1025.4 |
| 20260508060638 | 55 | 234 | 0.0 | 0.0 | 0.00 | 0.00 | 0.00 | 77 | 1025.5 |
| 20260508060137 | 55 | 234 | 0.0 | 0.0 | 0.00 | 0.00 | 0.00 | 77 | 1025.4 |
| 20260508055638 | 55 | 235 | 0.0 | 0.0 | 0.00 | 0.00 | 0.00 | 77 | 1025.5 |
| 20260508055138 | 55 | 235 | 0.0 | 0.0 | 0.00 | 0.00 | 0.00 | 76 | 1025.5 |
| 20260508054638 | 56 | 235 | 0.0 | 0.0 | 0.00 | 0.00 | 0.00 | 75 | 1025.4 |
| 20260508054138 | 56 | 235 | 0.0 | 0.0 | 0.00 | 0.00 | 0.00 | 74 | 1025.4 |
| 20260508053631 | 56 | 235 | 0.0 | 0.0 | 0.00 | 0.00 | 0.00 | 74 | 1025.4 |
| 20260508053132 | 57 | 234 | 0.0 | 0.0 | 0.00 | 0.00 | 0.00 | 73 | 1025.4 |
| 20260508052632 | 57 | 235 | 0.0 | 0.0 | 0.00 | 0.00 | 0.00 | 73 | 1025.3 |
| 20260508052132 | 58 | 235 | 0.0 | 0.0 | 0.00 | 0.00 | 0.00 | 72 | 1025.3 |
| 20260508051632 | 58 | 234 | 0.0 | 0.0 | 0.00 | 0.00 | 0.00 | 72 | 1025.4 |
| 20260508051133 | 58 | 235 | 0.0 | 0.0 | 0.00 | 0.00 | 0.00 | 71 | 1025.4 |
| 20260508050627 | 58 | 234 | 0.0 | 0.9 | 0.00 | 0.00 | 0.00 | 71 | 1025.5 |
| 20260508050126 | 59 | 234 | 0.0 | 0.9 | 0.00 | 0.00 | 0.00 | 70 | 1025.3 |
| 20260508045626 | 59 | 234 | 0.0 | 0.9 | 0.00 | 0.00 | 0.00 | 70 | 1025.3 |
| 20260508045125 | 59 | 235 | 0.0 | 0.9 | 0.00 | 0.00 | 0.00 | 69 | 1025.3 |
| 20260508044626 | 60 | 234 | 0.0 | 1.7 | 0.00 | 0.00 | 0.00 | 69 | 1025.3 |
| 20260508043626 | 60 | 233 | 0.0 | 2.6 | 0.00 | 0.00 | 0.00 | 69 | 1025.3 |
| 20260508043122 | 60 | 234 | 0.0 | 2.6 | 0.00 | 0.00 | 0.00 | 68 | 1025.2 |
| 20260508042623 | 61 | 234 | 0.9 | 2.6 | 0.00 | 0.00 | 0.00 | 67 | 1025.2 |
| 20260508042122 | 61 | 234 | 0.9 | 2.6 | 0.00 | 0.00 | 0.00 | 67 | 1025.1 |
| 20260508041620 | 61 | 289 | 0.9 | 2.6 | 0.00 | 0.00 | 0.00 | 66 | 1025.0 |
| 20260508041121 | 62 | 296 | 0.9 | 3.5 | 0.00 | 0.00 | 0.00 | 66 | 1025.0 |
| 20260508040616 | 62 | 292 | 1.7 | 3.5 | 0.00 | 0.00 | 0.00 | 65 | 1025.0 |
| 20260508040117 | 62 | 275 | 1.7 | 3.5 | 0.00 | 0.00 | 0.00 | 65 | 1025.0 |
| 20260508035614 | 62 | 276 | 1.7 | 3.5 | 0.00 | 0.00 | 0.00 | 65 | 1024.9 |
| 20260508035114 | 63 | 275 | 1.7 | 3.5 | 0.00 | 0.00 | 0.00 | 65 | 1024.9 |
| 20260508034613 | 63 | 329 | 1.7 | 3.5 | 0.00 | 0.00 | 0.00 | 65 | 1025.0 |
| 20260508034115 | 63 | 329 | 1.7 | 3.5 | 0.00 | 0.00 | 0.00 | 65 | 1024.8 |
| 20260508033608 | 64 | 317 | 1.7 | 6.1 | 0.00 | 0.00 | 0.00 | 65 | 1024.8 |
| 20260508033108 | 64 | 258 | 1.7 | 6.1 | 0.00 | 0.00 | 0.00 | 65 | 1024.7 |
| 20260508032607 | 65 | 285 | 1.7 | 5.2 | 0.00 | 0.00 | 0.00 | 64 | 1024.6 |
| 20260508032107 | 65 | 268 | 1.7 | 6.1 | 0.00 | 0.00 | 0.00 | 64 | 1024.5 |
| 20260508031608 | 66 | 276 | 1.7 | 7.0 | 0.00 | 0.00 | 0.00 | 63 | 1024.4 |
| 20260508031109 | 66 | 291 | 1.7 | 7.0 | 0.00 | 0.00 | 0.00 | 62 | 1024.4 |
| 20260508030606 | 67 | 288 | 2.6 | 4.3 | 0.00 | 0.00 | 0.00 | 62 | 1024.3 |
| 20260508030103 | 68 | 345 | 2.6 | 7.8 | 0.00 | 0.00 | 0.00 | 61 | 1024.6 |
| 20260508025605 | 69 | 284 | 2.6 | 7.8 | 0.00 | 0.00 | 0.00 | 59 | 1024.5 |
| 20260508025103 | 71 | 355 | 1.7 | 7.8 | 0.00 | 0.00 | 0.00 | 57 | 1024.5 |
| 20260508024601 | 72 | 307 | 0.9 | 4.3 | 0.00 | 0.00 | 0.00 | 48 | 1024.4 |
| 20260508024103 | 73 | 109 | 0.9 | 2.6 | 0.00 | 0.00 | 0.00 | 48 | 1024.3 |
| 20260508023556 | 73 | 111 | 0.9 | 1.7 | 0.00 | 0.00 | 0.00 | 48 | 1024.2 |
| 20260508023058 | 73 | 112 | 0.9 | 3.5 | 0.00 | 0.00 | 0.00 | 48 | 1024.3 |
| 20260508022554 | 73 | 102 | 0.9 | 3.5 | 0.00 | 0.00 | 0.00 | 47 | 1024.3 |
| 20260508022054 | 74 | 114 | 1.7 | 3.5 | 0.00 | 0.00 | 0.00 | 46 | 1024.3 |
| 20260508021553 | 74 | 82 | 1.7 | 3.5 | 0.00 | 0.00 | 0.00 | 46 | 1024.2 |
| 20260508021054 | 74 | 87 | 1.7 | 5.2 | 0.00 | 0.00 | 0.00 | 46 | 1024.1 |
| 20260508020549 | 74 | 71 | 1.7 | 5.2 | 0.00 | 0.00 | 0.00 | 46 | 1024.2 |
| 20260508020048 | 75 | 90 | 1.7 | 5.2 | 0.00 | 0.00 | 0.00 | 45 | 1024.1 |
| 20260508015549 | 75 | 102 | 1.7 | 5.2 | 0.00 | 0.00 | 0.00 | 45 | 1024.1 |
| 20260508015047 | 76 | 79 | 1.7 | 5.2 | 0.00 | 0.00 | 0.00 | 44 | 1024.1 |
| 20260508014547 | 76 | 62 | 2.6 | 7.0 | 0.00 | 0.00 | 0.00 | 45 | 1024.4 |
| 20260508014049 | 76 | 146 | 2.6 | 7.0 | 0.00 | 0.00 | 0.00 | 44 | 1024.4 |
| 20260508013544 | 76 | 102 | 1.7 | 7.0 | 0.00 | 0.00 | 0.00 | 43 | 1024.5 |
| 20260508013045 | 76 | 132 | 2.6 | 7.0 | 0.00 | 0.00 | 0.00 | 44 | 1024.7 |
| 20260508012545 | 76 | 31 | 1.7 | 4.3 | 0.00 | 0.00 | 0.00 | 44 | 1024.5 |
| 20260508012044 | 76 | 79 | 1.7 | 6.1 | 0.00 | 0.00 | 0.00 | 45 | 1024.6 |
| 20260508011543 | 76 | 96 | 1.7 | 6.1 | 0.00 | 0.00 | 0.00 | 45 | 1024.7 |
| 20260508011045 | 76 | 92 | 2.6 | 5.2 | 0.00 | 0.00 | 0.00 | 45 | 1024.7 |
| 20260508010539 | 76 | 51 | 1.7 | 7.0 | 0.00 | 0.00 | 0.00 | 45 | 1024.7 |
| 20260508010040 | 76 | 86 | 1.7 | 7.0 | 0.00 | 0.00 | 0.00 | 44 | 1024.8 |
| 20260508005545 | 76 | 46 | 0.9 | 7.0 | 0.00 | 0.00 | 0.00 | 43 | 1024.9 |
| 20260508005039 | 76 | 47 | 1.7 | 7.0 | 0.00 | 0.00 | 0.00 | 44 | 1024.9 |
| 20260508004539 | 76 | 134 | 1.7 | 7.8 | 0.00 | 0.00 | 0.00 | 43 | 1024.9 |
| 20260508004040 | 76 | 61 | 1.7 | 7.8 | 0.00 | 0.00 | 0.00 | 44 | 1025.0 |
| 20260508003535 | 76 | 83 | 1.7 | 6.1 | 0.00 | 0.00 | 0.00 | 45 | 1024.9 |
| 20260508003036 | 76 | 105 | 1.7 | 7.8 | 0.00 | 0.00 | 0.00 | 45 | 1025.0 |
| 20260508002537 | 76 | 96 | 2.6 | 7.8 | 0.00 | 0.00 | 0.00 | 42 | 1025.0 |
| 20260508002036 | 76 | 135 | 3.5 | 9.6 | 0.00 | 0.00 | 0.00 | 43 | 1024.9 |
| 20260508001535 | 76 | 75 | 3.5 | 9.6 | 0.00 | 0.00 | 0.00 | 43 | 1025.0 |
| 20260508001037 | 76 | 89 | 2.6 | 8.7 | 0.00 | 0.00 | 0.00 | 43 | 1025.0 |
| 20260508000532 | 76 | 127 | 1.7 | 7.0 | 0.00 | 0.00 | 0.00 | 43 | 1025.0 |